Location: Bli��� Lhota
(48.7570°N, 14.0120°E)
Time: 09:04:36
(UTC+00:00)

Abrixas rocket - Pass Details

Date: 18 September 2020
Orbit: 328 x 335 km, 48.4° (Epoch: 27 October)

Event Time Altitude Azimuth Distance (km) Brightness Sun altitude
Rises 18:04:49 0° 253° (WSW) 2,091 6.9 -9.8°
Reaches altitude 10° 18:06:49 10° 250° (WSW) 1,255 5.6 -10.1°
Maximum altitude 18:09:36 65° 168° (SSE) 365 1.8 -10.6°
Enters shadow 18:11:28 18° 88° (E) 885 3.3 -10.9°
